Jefferson, NC

9:17 PM EST on December 09, 2019 (GMT -0500)
Ashe County

Weather History for KGEV - October, 2019

Change the Weather History Date:

Thursday, October 10, 2019

  Actual Average Record
Temperature  
Mean Temperature 60 °F -  
Max Temperature 68 °F 64 °F 77 °F (2010)
Min Temperature 51 °F 40 °F 26 °F (1989)
Degree Days  
Heating Degree Days 6    
Growing Degree Days 10 (Base 50)    
Moisture  
Dew Point 53 °F    
Average Humidity 85    
Maximum Humidity 100    
Minimum Humidity 55    
Precipitation  
Precipitation 0.00 in - - ()
Sea Level Pressure  
Sea Level Pressure 30.25 in    
Wind  
Wind Speed 1 mph ()    
Max Wind Speed 9 mph    
Max Gust Speed -    
Visibility 8.9 miles    
Events      
Averages and records for this station are not official NWS values.
T = Trace of Precipitation, MM = Missing Value Source: Averaged Metar Reports

Daily Weather History Graph

Daily Weather History Graph

Search for Another Location

Airport or City:

Astronomy

Oct. 10, 2019 Rise Set
Actual Time 7:28 AM EDT 6:56 PM EDT
Civil Twilight 7:02 AM EDT 7:22 PM EDT
Nautical Twilight 6:32 AM EDT 7:52 PM EDT
Astronomical Twilight 6:02 AM EDT 8:22 PM EDT
Moon 5:50 PM EDT 4:18 AM EDT
Length of Visible Light 12h 19m
Length of Day
11h 28m
Waxing Gibbous, 91% of the Moon is Illuminated
Oct 10
Waxing Gibbous
Oct 13
Full
Oct 21
Last Quarter
Oct 27
New
Nov 4
First Quarter

Hourly Weather History & Observations

Time (EDT) Temp. Dew Point Humidity Pressure Visibility Wind Dir Wind Speed Gust Speed Precip Events Conditions
12:15 AM 54.1 °F 53.8 °F 99% 30.26 in 10.0 mi Calm Calm - N/A   Overcast
12:35 AM 54.3 °F 53.1 °F 95% 30.26 in 10.0 mi Calm Calm - N/A   Overcast
12:55 AM 54.5 °F 52.3 °F 92% 30.26 in 10.0 mi Calm Calm - N/A   Overcast
1:15 AM 54.3 °F 52.0 °F 92% 30.26 in 10.0 mi Calm Calm - N/A   Overcast
1:35 AM 54.3 °F 51.8 °F 91% 30.26 in 10.0 mi Calm Calm - N/A   Overcast
1:55 AM 54.0 °F 51.8 °F 92% 30.27 in 10.0 mi Calm Calm - N/A   Overcast
2:15 AM 53.6 °F 51.8 °F 94% 30.27 in 10.0 mi Calm Calm - N/A   Overcast
2:35 AM 53.4 °F 51.8 °F 94% 30.26 in 10.0 mi Calm Calm - N/A   Overcast
2:55 AM 53.1 °F 52.0 °F 96% 30.26 in 10.0 mi Calm Calm - N/A   Overcast
3:15 AM 52.7 °F 52.0 °F 97% 30.27 in 10.0 mi Calm Calm - N/A   Overcast
3:35 AM 52.7 °F 52.2 °F 98% 30.26 in 10.0 mi SE 3.5 mph - N/A   Overcast
3:55 AM 52.5 °F 52.2 °F 99% 30.26 in 7.0 mi Calm Calm - N/A   Overcast
4:15 AM 52.2 °F 52.2 °F 100% 30.25 in 5.0 mi SSE 3.5 mph - N/A   Overcast
4:35 AM 52.2 °F 52.2 °F 100% 30.26 in 3.0 mi Calm Calm - N/A   Overcast
4:55 AM 51.8 °F 51.8 °F 100% 30.26 in 2.5 mi Calm Calm - N/A   Overcast
5:15 AM 51.8 °F 51.8 °F 100% 30.26 in 3.0 mi Calm Calm - N/A   Overcast
5:35 AM 51.8 °F 51.8 °F 100% 30.26 in 4.0 mi Calm Calm - N/A   Overcast
6:35 AM 51.8 °F 51.8 °F 100% 30.27 in 4.0 mi Calm Calm - N/A   Overcast
6:55 AM 51.6 °F 51.6 °F 100% 30.27 in 5.0 mi Calm Calm - N/A   Overcast
7:15 AM 51.8 °F 51.8 °F 100% 30.27 in 5.0 mi Calm Calm - N/A   Overcast
7:35 AM 51.8 °F 51.6 °F 99% 30.27 in 7.0 mi Calm Calm - N/A   Overcast
7:55 AM 52.0 °F 51.8 °F 99% 30.27 in 7.0 mi Calm Calm - N/A   Overcast
8:15 AM 52.3 °F 52.0 °F 99% 30.27 in 7.0 mi Calm Calm - N/A   Overcast
8:35 AM 52.3 °F 51.8 °F 98% 30.27 in 7.0 mi Calm Calm - N/A   Overcast
8:55 AM 52.7 °F 52.0 °F 97% 30.28 in 10.0 mi Calm Calm - N/A   Overcast
9:15 AM 53.8 °F 51.4 °F 92% 30.28 in 10.0 mi Calm Calm - N/A   Overcast
9:35 AM 54.1 °F 51.3 °F 90% 30.28 in 10.0 mi Calm Calm - N/A   Overcast
9:55 AM 54.7 °F 51.4 °F 89% 30.28 in 10.0 mi Calm Calm - N/A   Scattered Clouds
10:15 AM 56.8 °F 52.3 °F 85% 30.27 in 10.0 mi Calm Calm - N/A   Clear
10:35 AM 58.1 °F 52.7 °F 82% 30.27 in 10.0 mi Calm Calm - N/A   Clear
10:55 AM 59.5 °F 53.4 °F 80% 30.27 in 10.0 mi Calm Calm - N/A   Clear
11:15 AM 62.1 °F 54.7 °F 77% 30.27 in 10.0 mi ENE 4.6 mph - N/A   Clear
11:35 AM 62.2 °F 54.1 °F 75% 30.26 in 10.0 mi ESE 3.5 mph - N/A   Clear
11:55 AM 63.5 °F 55.0 °F 74% 30.27 in 10.0 mi NE 4.6 mph - N/A   Clear
12:15 PM 64.2 °F 55.2 °F 73% 30.27 in 10.0 mi ENE 3.5 mph - N/A   Clear
12:35 PM 64.8 °F 54.9 °F 70% 30.26 in 10.0 mi North 3.5 mph - N/A   Scattered Clouds
12:55 PM 65.5 °F 54.7 °F 68% 30.26 in 10.0 mi Calm Calm - N/A   Mostly Cloudy
1:15 PM 65.8 °F 53.8 °F 65% 30.26 in 10.0 mi NE 5.8 mph - N/A   Scattered Clouds
1:35 PM 65.3 °F 53.2 °F 65% 30.24 in 10.0 mi ENE 4.6 mph - N/A   Clear
1:55 PM 68.0 °F 52.3 °F 57% 30.24 in 10.0 mi Calm Calm - N/A   Scattered Clouds
2:15 PM 67.8 °F 52.2 °F 57% 30.23 in 10.0 mi East 6.9 mph - N/A   Mostly Cloudy
2:35 PM 68.2 °F 51.6 °F 55% 30.23 in 10.0 mi NE 6.9 mph - N/A   Mostly Cloudy
2:55 PM 68.5 °F 52.2 °F 56% 30.22 in 10.0 mi ENE 9.2 mph - N/A   Mostly Cloudy
3:15 PM 66.9 °F 52.0 °F 59% 30.21 in 10.0 mi North 3.5 mph - N/A   Mostly Cloudy
3:35 PM 68.2 °F 52.2 °F 56% 30.21 in 7.0 mi ENE 4.6 mph - N/A   Scattered Clouds
3:55 PM 67.3 °F 52.0 °F 58% 30.21 in 7.0 mi NNE 5.8 mph - N/A   Scattered Clouds
4:15 PM 65.1 °F 54.9 °F 69% 30.21 in 10.0 mi Calm Calm - N/A   Scattered Clouds
4:35 PM 64.4 °F 56.5 °F 75% 30.21 in 10.0 mi Calm Calm - N/A   Mostly Cloudy
4:55 PM 64.2 °F 57.6 °F 79% 30.21 in 10.0 mi Calm Calm - N/A   Scattered Clouds
5:35 PM 64.6 °F 57.4 °F 77% 30.22 in 10.0 mi SSE 4.6 mph - N/A   Overcast
5:55 PM 64.6 °F 57.2 °F 77% 30.22 in 10.0 mi South 4.6 mph - N/A   Overcast
6:35 PM 61.0 °F 55.9 °F 83% 30.21 in 10.0 mi Calm Calm - N/A   Scattered Clouds
6:55 PM 59.9 °F 55.8 °F 86% 30.22 in 10.0 mi Calm Calm - N/A   Clear
7:15 PM 59.0 °F 55.6 °F 88% 30.22 in 10.0 mi Calm Calm - N/A   Scattered Clouds
7:35 PM 58.8 °F 55.4 °F 88% 30.22 in 10.0 mi Calm Calm - N/A   Clear
7:55 PM 57.6 °F 55.4 °F 92% 30.22 in 10.0 mi Calm Calm - N/A   Clear
8:35 PM 57.6 °F 54.9 °F 91% 30.22 in 10.0 mi Calm Calm - N/A   Clear
9:15 PM 57.2 °F 54.1 °F 89% 30.24 in 10.0 mi Calm Calm - N/A   Clear
9:35 PM 57.2 °F 54.0 °F 89% 30.24 in 10.0 mi Calm Calm - N/A   Clear
9:55 PM 56.7 °F 53.8 °F 90% 30.24 in 10.0 mi Calm Calm - N/A   Clear
10:15 PM 56.7 °F 53.6 °F 89% 30.24 in 10.0 mi Calm Calm - N/A   Clear
10:35 PM 56.5 °F 53.2 °F 89% 30.24 in 10.0 mi Calm Calm - N/A   Clear
10:55 PM 56.3 °F 52.9 °F 88% 30.25 in 10.0 mi SW 3.5 mph - N/A   Clear
11:15 PM 56.5 °F 52.5 °F 87% 30.25 in 10.0 mi Calm Calm - N/A   Scattered Clouds
11:35 PM 56.3 °F 52.3 °F 87% 30.25 in 10.0 mi Calm Calm - N/A   Scattered Clouds
11:55 PM 54.9 °F 52.0 °F 90% 30.25 in 10.0 mi Calm Calm - N/A   Scattered Clouds